• Em Portugal
  • Lista de países
  • Para 7 dias
  • Temperatura da água
  • Mapas de satélite
  • Mapa do tempo
  • Widgets de tempo
  • user-avatar
    Iniciar Sessão

    Previsão horária em Sagaleipie

    Hoje, 21 Outubro, Domingo

    Tempo Temperatura Precipitação Vento Pressão Humidade
    00:00 +21°C° 0 mm 0 m/s 721 mmHg 88%
    01:00 +21°C° 0 mm 0 m/s 721 mmHg 90%
    02:00 +21°C° 0 mm 0 m/s 721 mmHg 93%
    03:00 +20°C° 0 mm 0 m/s 721 mmHg 94%
    04:00 +20°C° 0 mm 0 m/s 721 mmHg 95%
    05:00 +20°C° 0 mm 0 m/s 721 mmHg 96%
    06:00 +22°C° 0 mm 0 m/s 722 mmHg 89%
    07:00 +24°C° 0 mm 0 m/s 722 mmHg 82%
    08:00 +28°C° 0 mm 1 m/s 723 mmHg 75%
    09:00 +29°C° 0.2 mm 1 m/s 723 mmHg 69%
    10:00 +31°C° 0.2 mm 1 m/s 723 mmHg 63%
    11:00 +33°C° 0.2 mm 1 m/s 722 mmHg 58%
    12:00 +32°C° 0.7 mm 1 m/s 722 mmHg 62%
    13:00 +31°C° 0.7 mm 1 m/s 721 mmHg 66%
    14:00 +31°C° 0.7 mm 1 m/s 720 mmHg 71%
    15:00 +29°C° 0.4 mm 1 m/s 720 mmHg 76%
    16:00 +28°C° 0.4 mm 1 m/s 721 mmHg 81%
    17:00 +27°C° 0.4 mm 1 m/s 721 mmHg 86%
    18:00 +26°C° 0.3 mm 1 m/s 721 mmHg 88%
    19:00 +24°C° 0.3 mm 0 m/s 722 mmHg 90%
    20:00 +23°C° 0.3 mm 0 m/s 723 mmHg 93%
    21:00 +24°C° 0.2 mm 1 m/s 723 mmHg 94%
    22:00 +24°C° 0.2 mm 1 m/s 723 mmHg 96%
    23:00 +24°C° 0.2 mm 1 m/s 723 mmHg 97%

    Amanhã, 22 Outubro, Segunda-feira

    Tempo Temperatura Precipitação Vento Pressão Humidade
    00:00 +23°C° 0 mm 1 m/s 723 mmHg 98%
    01:00 +21°C° 0 mm 0 m/s 722 mmHg 98%
    02:00 +21°C° 0 mm 0 m/s 722 mmHg 99%
    03:00 +21°C° 0 mm 0 m/s 722 mmHg 99%
    04:00 +21°C° 0 mm 0 m/s 722 mmHg 99%
    05:00 +20°C° 0 mm 0 m/s 722 mmHg 99%
    06:00 +22°C° 0 mm 0 m/s 723 mmHg 95%
    07:00 +23°C° 0 mm 0 m/s 723 mmHg 92%
    08:00 +26°C° 0 mm 1 m/s 724 mmHg 88%
    09:00 +29°C° 0 mm 1 m/s 723 mmHg 76%
    10:00 +31°C° 0 mm 1 m/s 723 mmHg 65%
    11:00 +34°C° 0 mm 1 m/s 723 mmHg 53%
    12:00 +34°C° 0 mm 1 m/s 722 mmHg 52%
    13:00 +33°C° 0 mm 1 m/s 722 mmHg 52%
    14:00 +33°C° 0 mm 1 m/s 721 mmHg 52%
    15:00 +31°C° 0.8 mm 1 m/s 721 mmHg 63%
    16:00 +29°C° 0.8 mm 1 m/s 721 mmHg 74%
    17:00 +27°C° 0.8 mm 1 m/s 721 mmHg 86%
    18:00 +26°C° 1.4 mm 1 m/s 722 mmHg 89%
    19:00 +25°C° 1.4 mm 1 m/s 723 mmHg 93%
    20:00 +24°C° 1.4 mm 1 m/s 723 mmHg 97%
    21:00 +24°C° 0 mm 1 m/s 724 mmHg 97%
    22:00 +24°C° 0 mm 1 m/s 724 mmHg 98%
    23:00 +22°C° 0 mm 0 m/s 724 mmHg 98%

    Depois de amanhã, 23 Outubro, Terça-feira

    Tempo Temperatura Precipitação Vento Pressão Humidade
    00:00 +21°C° 0 mm 0 m/s 723 mmHg 99%
    01:00 +21°C° 0 mm 0 m/s 723 mmHg 99%
    02:00 +21°C° 0 mm 0 m/s 722 mmHg 99%
    03:00 +21°C° 0 mm 0 m/s 723 mmHg 99%
    04:00 +21°C° 0 mm 0 m/s 723 mmHg 99%
    05:00 +21°C° 0 mm 0 m/s 723 mmHg 99%
    06:00 +22°C° 0 mm 0 m/s 723 mmHg 96%
    07:00 +25°C° 0 mm 1 m/s 724 mmHg 94%
    08:00 +26°C° 0 mm 1 m/s 724 mmHg 91%
    09:00 +28°C° 0.1 mm 1 m/s 724 mmHg 82%
    10:00 +30°C° 0.1 mm 1 m/s 724 mmHg 72%
    11:00 +32°C° 0.1 mm 1 m/s 724 mmHg 63%
    12:00 +33°C° 0 mm 1 m/s 723 mmHg 58%
    13:00 +32°C° 0 mm 0 m/s 722 mmHg 54%
    14:00 +33°C° 0 mm 0 m/s 722 mmHg 50%
    15:00 +30°C° 0.6 mm 0 m/s 721 mmHg 62%
    16:00 +30°C° 0.6 mm 1 m/s 721 mmHg 75%
    17:00 +27°C° 0.6 mm 1 m/s 721 mmHg 87%
    18:00 +26°C° 0.3 mm 1 m/s 722 mmHg 90%
    19:00 +25°C° 0.3 mm 1 m/s 723 mmHg 93%
    20:00 +25°C° 0.3 mm 1 m/s 723 mmHg 96%
    21:00 +24°C° 0.1 mm 1 m/s 723 mmHg 97%
    22:00 +24°C° 0.1 mm 1 m/s 723 mmHg 98%
    23:00 +24°C° 0.1 mm 1 m/s 723 mmHg 99%

    24 Outubro, Quarta-feira

    Tempo Temperatura Precipitação Vento Pressão Humidade
    00:00 +24°C° 0.1 mm 1 m/s 723 mmHg 99%
    01:00 +24°C° 0.1 mm 1 m/s 722 mmHg 99%
    02:00 +24°C° 0.1 mm 1 m/s 722 mmHg 99%
    03:00 +24°C° 0 mm 1 m/s 722 mmHg 99%
    04:00 +24°C° 0 mm 1 m/s 722 mmHg 99%
    05:00 +24°C° 0 mm 1 m/s 722 mmHg 99%
    06:00 +24°C° 0 mm 1 m/s 723 mmHg 97%
    07:00 +25°C° 0 mm 1 m/s 723 mmHg 96%
    08:00 +25°C° 0 mm 1 m/s 723 mmHg 94%
    09:00 +27°C° 0 mm 1 m/s 723 mmHg 87%
    10:00 +28°C° 0 mm 1 m/s 723 mmHg 79%
    11:00 +30°C° 0 mm 1 m/s 722 mmHg 72%
    12:00 +31°C° 0.1 mm 1 m/s 722 mmHg 66%
    13:00 +33°C° 0.1 mm 1 m/s 721 mmHg 59%
    14:00 +33°C° 0.1 mm 0 m/s 721 mmHg 53%
    15:00 +30°C° 0.5 mm 0 m/s 721 mmHg 63%
    16:00 +30°C° 0.5 mm 1 m/s 721 mmHg 72%
    17:00 +28°C° 0.5 mm 1 m/s 721 mmHg 82%
    18:00 +27°C° 0.8 mm 1 m/s 721 mmHg 86%
    19:00 +26°C° 0.8 mm 1 m/s 722 mmHg 91%
    20:00 +25°C° 0.8 mm 1 m/s 722 mmHg 95%
    21:00 +24°C° 0.3 mm 1 m/s 722 mmHg 96%
    22:00 +24°C° 0.3 mm 1 m/s 722 mmHg 97%
    23:00 +24°C° 0.3 mm 1 m/s 722 mmHg 98%

    25 Outubro, Quinta-feira

    Tempo Temperatura Precipitação Vento Pressão Humidade
    00:00 +22°C° 0.1 mm 0 m/s 722 mmHg 98%
    01:00 +22°C° 0.1 mm 0 m/s 722 mmHg 98%
    02:00 +21°C° 0.1 mm 0 m/s 721 mmHg 99%
    03:00 +21°C° 0 mm 0 m/s 721 mmHg 99%
    04:00 +21°C° 0 mm 0 m/s 722 mmHg 99%
    05:00 +21°C° 0 mm 0 m/s 722 mmHg 99%
    06:00 +22°C° 0 mm 0 m/s 722 mmHg 96%
    07:00 +23°C° 0 mm 0 m/s 723 mmHg 94%
    08:00 +24°C° 0 mm 0 m/s 723 mmHg 91%
    09:00 +28°C° 0 mm 1 m/s 723 mmHg 83%
    10:00 +30°C° 0 mm 1 m/s 722 mmHg 74%
    11:00 +31°C° 0 mm 1 m/s 722 mmHg 66%
    12:00 +32°C° 0.1 mm 1 m/s 721 mmHg 60%
    13:00 +34°C° 0.1 mm 1 m/s 721 mmHg 54%
    14:00 +35°C° 0.1 mm 1 m/s 720 mmHg 48%
    15:00 +33°C° 0.2 mm 1 m/s 720 mmHg 57%
    16:00 +31°C° 0.2 mm 1 m/s 720 mmHg 65%
    17:00 +29°C° 0.2 mm 1 m/s 720 mmHg 74%
    18:00 +28°C° 0.2 mm 1 m/s 721 mmHg 79%
    19:00 +27°C° 0.2 mm 1 m/s 721 mmHg 83%
    20:00 +25°C° 0.2 mm 1 m/s 722 mmHg 87%
    21:00 +25°C° 0.1 mm 1 m/s 722 mmHg 91%
    22:00 +24°C° 0.1 mm 1 m/s 722 mmHg 95%
    23:00 +24°C° 0.1 mm 1 m/s 722 mmHg 98%

    26 Outubro, Sexta-feira

    Tempo Temperatura Precipitação Vento Pressão Humidade
    00:00 +22°C° 0 mm 0 m/s 722 mmHg 98%
    01:00 +22°C° 0 mm 0 m/s 722 mmHg 98%
    02:00 +22°C° 0 mm 0 m/s 721 mmHg 97%
    03:00 +22°C° 0.1 mm 0 m/s 722 mmHg 98%
    04:00 +22°C° 0.1 mm 0 m/s 722 mmHg 98%
    05:00 +22°C° 0.1 mm 0 m/s 722 mmHg 98%
    06:00 +23°C° 0 mm 0 m/s 722 mmHg 93%
    07:00 +27°C° 0 mm 1 m/s 723 mmHg 88%
    08:00 +28°C° 0 mm 1 m/s 723 mmHg 83%
    09:00 +30°C° 0 mm 1 m/s 723 mmHg 73%
    10:00 +32°C° 0 mm 1 m/s 722 mmHg 64%
    11:00 +32°C° 0 mm 0 m/s 722 mmHg 54%
    12:00 +32°C° 0.5 mm 0 m/s 721 mmHg 56%
    13:00 +31°C° 0.5 mm 0 m/s 721 mmHg 58%
    14:00 +31°C° 0.5 mm 0 m/s 720 mmHg 59%
    15:00 +29°C° 0.8 mm 0 m/s 720 mmHg 70%
    16:00 +29°C° 0.8 mm 1 m/s 721 mmHg 80%
    17:00 +27°C° 0.8 mm 1 m/s 721 mmHg 90%
    18:00 +26°C° 0.3 mm 1 m/s 721 mmHg 92%
    19:00 +25°C° 0.3 mm 1 m/s 722 mmHg 94%
    20:00 +24°C° 0.3 mm 1 m/s 722 mmHg 96%
    21:00 +24°C° 0 mm 1 m/s 722 mmHg 97%
    22:00 +24°C° 0 mm 1 m/s 722 mmHg 98%
    23:00 +24°C° 0 mm 1 m/s 722 mmHg 99%
    Mostrar mais